Bellefontaine, OH

9:12 AM EDT on July 24, 2017 (GMT -0400)
Bellefontaine

Weather History for KEDJ - August, 2013

Change the Weather History Date:

Tuesday, August 27, 2013

  Actual Average (KDLZ) Record (KDLZ)
Temperature  
Mean Temperature 74 °F -  
Max Temperature 82 °F 83 °F 95 °F (1948)
Min Temperature 66 °F 58 °F 44 °F (1946)
Cooling Degree Days 9    
Growing Degree Days 24 (Base 50)    
Moisture  
Dew Point 72 °F    
Average Humidity 91    
Maximum Humidity 100    
Minimum Humidity 74    
Precipitation  
Precipitation 0.00 in - - ()
Sea Level Pressure  
Sea Level Pressure 30.02 in    
Wind  
Wind Speed 4 mph (SSW)    
Max Wind Speed 9 mph    
Max Gust Speed -    
Visibility 7 miles    
Events      
Averages and records for this station are not official NWS values.
T = Trace of Precipitation, MM = Missing Value Source: NWS Daily Summary

Daily Weather History Graph

Daily Weather History Graph

Search for Another Location

Airport or City:

Trip Planner

Search our weather history database for the weather conditions in past years. The results will help you decide how hot, cold, wet, or windy it might be!

Date:

Astronomy

Aug. 27, 2013 Rise Set
Actual Time 6:58 AM EDT 8:14 PM EDT
Civil Twilight 6:29 AM EDT 8:42 PM EDT
Nautical Twilight 5:55 AM EDT 9:16 PM EDT
Astronomical Twilight 5:20 AM EDT 9:51 PM EDT
Moon No Moon Rise 1:56 PM EDT (8/27)
Length of Visible Light 14h 12m
Length of Day
13h 16m
Waning Gibbous, 57% of the Moon is Illuminated
Aug 27
Waning Gibbous
Aug 28
Last Quarter
Sep 5
New
Sep 12
First Quarter
Sep 19
Full

Hourly Weather History & Observations

Time (EDT) Temp. Heat Index Dew Point Humidity Pressure Visibility Wind Dir Wind Speed Gust Speed Precip Events Conditions
12:10 AM 69.8 °F - 69.8 °F 100% 30.07 in 6.0 mi SSW 4.6 mph - 0.00 in   Clear
12:30 AM 69.8 °F - 69.8 °F 100% 30.07 in 5.0 mi SSW 3.5 mph - 0.00 in   Clear
12:50 AM 69.8 °F - 69.8 °F 100% 30.06 in 5.0 mi SSW 4.6 mph - 0.00 in   Clear
1:10 AM 69.8 °F - 69.8 °F 100% 30.06 in 5.0 mi South 3.5 mph - 0.00 in   Clear
1:30 AM 69.8 °F - 69.8 °F 100% 30.06 in 5.0 mi Calm Calm - 0.00 in   Clear
1:50 AM 69.8 °F - 69.8 °F 100% 30.06 in 5.0 mi South 3.5 mph - 0.00 in   Clear
2:10 AM 69.8 °F - 69.8 °F 100% 30.06 in 5.0 mi SSE 3.5 mph - 0.00 in   Clear
2:30 AM 69.8 °F - 69.8 °F 100% 30.06 in 5.0 mi South 3.5 mph - 0.00 in   Clear
2:50 AM 68.0 °F - 68.0 °F 100% 30.06 in 5.0 mi Calm Calm - 0.00 in   Clear
3:10 AM 68.0 °F - 68.0 °F 100% 30.05 in 5.0 mi Calm Calm - 0.00 in   Clear
3:30 AM 68.0 °F - 68.0 °F 100% 30.05 in 5.0 mi South 3.5 mph - 0.00 in   Clear
3:50 AM 68.0 °F - 68.0 °F 100% 30.05 in 5.0 mi South 4.6 mph - 0.00 in   Mostly Cloudy
4:10 AM 68.0 °F - 68.0 °F 100% 30.05 in 5.0 mi SSW 3.5 mph - 0.00 in   Mostly Cloudy
4:30 AM 68.0 °F - 68.0 °F 100% 30.05 in 5.0 mi South 3.5 mph - 0.00 in   Mostly Cloudy
4:50 AM 68.0 °F - 68.0 °F 100% 30.04 in 5.0 mi South 4.6 mph - 0.00 in   Mostly Cloudy
5:10 AM 68.0 °F - 68.0 °F 100% 30.04 in 5.0 mi SSW 5.8 mph - 0.00 in   Scattered Clouds
5:30 AM 68.0 °F - 68.0 °F 100% 30.04 in 5.0 mi SSW 3.5 mph - 0.00 in   Scattered Clouds
5:50 AM 68.0 °F - 68.0 °F 100% 30.03 in 5.0 mi Calm Calm - 0.00 in   Scattered Clouds
6:10 AM 68.0 °F - 68.0 °F 100% 30.04 in 4.0 mi Calm Calm - 0.00 in   Partly Cloudy
6:30 AM 68.0 °F - 68.0 °F 100% 30.04 in 4.0 mi Calm Calm - 0.00 in   Clear
6:50 AM 68.0 °F - 68.0 °F 100% 30.05 in 4.0 mi Calm Calm - 0.00 in   Clear
7:10 AM 66.2 °F - 66.2 °F 100% 30.05 in 2.5 mi SSW 4.6 mph - 0.00 in   Clear
7:30 AM 68.0 °F - 68.0 °F 100% 30.05 in 2.0 mi SW 3.5 mph - 0.00 in   Clear
7:50 AM 68.0 °F - 68.0 °F 100% 30.05 in 2.5 mi SW 3.5 mph - 0.00 in   Clear
8:10 AM 68.0 °F - 68.0 °F 100% 30.05 in 2.0 mi SSW 4.6 mph - 0.00 in   Clear
8:30 AM 69.8 °F - 69.8 °F 100% 30.05 in 2.0 mi Calm Calm - 0.00 in   Clear
8:50 AM 69.8 °F - 69.8 °F 100% 30.05 in 3.0 mi SW 3.5 mph - 0.00 in   Clear
9:10 AM 71.6 °F - 71.6 °F 100% 30.05 in 4.0 mi Calm Calm - 0.00 in   Clear
9:30 AM 71.6 °F - 71.6 °F 100% 30.06 in 5.0 mi WSW 4.6 mph - 0.00 in   Clear
9:50 AM 73.4 °F - 71.6 °F 94% 30.07 in 5.0 mi West 4.6 mph - 0.00 in   Scattered Clouds
10:10 AM 73.4 °F - 71.6 °F 94% 30.06 in 5.0 mi Calm Calm - 0.00 in   Scattered Clouds
10:30 AM 73.4 °F - 71.6 °F 94% 30.06 in 6.0 mi Calm Calm - 0.00 in   Scattered Clouds
10:50 AM 75.2 °F - 71.6 °F 89% 30.05 in 7.0 mi SW 3.5 mph - 0.00 in   Partly Cloudy
11:10 AM 75.2 °F - 71.6 °F 89% 30.05 in 8.0 mi Calm Calm - 0.00 in   Clear
11:30 AM 75.2 °F - 71.6 °F 89% 30.05 in 8.0 mi Calm Calm - 0.00 in   Clear
11:50 AM 75.2 °F - 71.6 °F 89% 30.05 in 7.0 mi Calm Calm - 0.00 in   Scattered Clouds
12:10 PM 77.0 °F - 71.6 °F 83% 30.05 in 8.0 mi Calm Calm - 0.00 in   Mostly Cloudy
12:30 PM 77.0 °F - 71.6 °F 83% 30.05 in 8.0 mi SSW 5.8 mph - 0.00 in   Mostly Cloudy
12:50 PM 78.8 °F - 71.6 °F 78% 30.05 in 9.0 mi SSW 3.5 mph - 0.00 in   Mostly Cloudy
1:10 PM 78.8 °F - 71.6 °F 78% 30.05 in 9.0 mi South 3.5 mph - 0.00 in   Mostly Cloudy
1:30 PM 80.6 °F 85.4 °F 73.4 °F 79% 30.04 in 10.0 mi South 4.6 mph - 0.00 in   Partly Cloudy
1:50 PM 80.6 °F 84.6 °F 71.6 °F 74% 30.03 in 10.0 mi SSW 8.1 mph - 0.00 in   Clear
2:10 PM 78.8 °F - 73.4 °F 83% 30.03 in 9.0 mi South 8.1 mph - 0.00 in   Clear
2:30 PM 78.8 °F - 73.4 °F 83% 30.02 in 9.0 mi South 6.9 mph - 0.00 in   Clear
2:50 PM 80.6 °F 85.4 °F 73.4 °F 79% 30.01 in 9.0 mi SSE 6.9 mph - 0.00 in   Clear
3:10 PM 80.6 °F 85.4 °F 73.4 °F 79% 30.01 in 9.0 mi South 8.1 mph - 0.00 in   Clear
3:30 PM 80.6 °F 85.4 °F 73.4 °F 79% 29.99 in 9.0 mi SSE 6.9 mph - 0.00 in   Clear
3:50 PM 80.6 °F 85.4 °F 73.4 °F 79% 29.99 in 9.0 mi South 9.2 mph - 0.00 in   Clear
4:10 PM 82.4 °F 88.2 °F 73.4 °F 74% 29.98 in 9.0 mi South 8.1 mph - 0.00 in   Clear
4:30 PM 82.4 °F 88.2 °F 73.4 °F 74% 29.97 in 9.0 mi South 9.2 mph - 0.00 in   Clear
4:50 PM 82.4 °F 88.2 °F 73.4 °F 74% 29.97 in 9.0 mi South 8.1 mph - 0.00 in   Clear
5:10 PM 82.4 °F 89.5 °F 75.2 °F 79% 29.96 in 9.0 mi South 6.9 mph - 0.00 in   Clear
5:30 PM 82.4 °F 89.5 °F 75.2 °F 79% 29.97 in 10.0 mi South 4.6 mph - 0.00 in   Clear
5:50 PM 82.4 °F 89.5 °F 75.2 °F 79% 29.96 in 9.0 mi SSW 4.6 mph - 0.00 in   Clear
6:10 PM 82.4 °F 89.5 °F 75.2 °F 79% 29.96 in 10.0 mi SW 8.1 mph - 0.00 in   Partly Cloudy
6:30 PM 82.4 °F 88.2 °F 73.4 °F 74% 29.96 in 10.0 mi SW 8.1 mph - 0.00 in   Clear
6:50 PM 82.4 °F 88.2 °F 73.4 °F 74% 29.96 in 10.0 mi SSW 6.9 mph - 0.00 in   Clear
7:10 PM 82.4 °F 88.2 °F 73.4 °F 74% 29.96 in 10.0 mi SSW 8.1 mph - 0.00 in   Clear
7:30 PM 82.4 °F 88.2 °F 73.4 °F 74% 29.96 in 10.0 mi SSW 5.8 mph - 0.00 in   Clear
7:50 PM 82.4 °F 89.5 °F 75.2 °F 79% 29.96 in 10.0 mi SSW 5.8 mph - 0.00 in   Clear
8:10 PM 80.6 °F 86.2 °F 75.2 °F 84% 29.95 in 10.0 mi SSW 5.8 mph - 0.00 in   Clear
8:30 PM 78.8 °F - 75.2 °F 89% 29.95 in 10.0 mi SSW 6.9 mph - 0.00 in   Clear
8:50 PM 78.8 °F - 75.2 °F 89% 29.95 in 10.0 mi SSW 4.6 mph - 0.00 in   Clear
9:10 PM 77.0 °F - 75.2 °F 94% 29.96 in 10.0 mi South 4.6 mph - 0.00 in   Clear
9:30 PM 77.0 °F - 75.2 °F 94% 29.96 in 10.0 mi SSW 5.8 mph - 0.00 in   Clear
9:50 PM 77.0 °F - 75.2 °F 94% 29.96 in 10.0 mi SSW 5.8 mph - 0.00 in   Clear
10:10 PM 75.2 °F - 75.2 °F 100% 29.96 in 10.0 mi SSW 5.8 mph - 0.00 in   Clear
10:30 PM 75.2 °F - 75.2 °F 100% 29.96 in 9.0 mi SSW 6.9 mph - 0.00 in   Clear
10:50 PM 75.2 °F - 75.2 °F 100% 29.96 in 9.0 mi SSW 5.8 mph - 0.00 in   Clear
11:10 PM 75.2 °F - 75.2 °F 100% 29.96 in 9.0 mi SSW 5.8 mph - 0.00 in   Clear
11:30 PM 73.4 °F - 73.4 °F 100% 29.96 in 9.0 mi SSW 4.6 mph - 0.00 in   Clear
11:50 PM 73.4 °F - 73.4 °F 100% 29.96 in 10.0 mi SSW 5.8 mph - 0.00 in   Clear